#timestamp,LO_Frequency,Hit,StdDev 
1638036015.7,286046999.4,N
1638036035.5,286046998.9,N
1638036055.4,286046998.6,N
1638036075.2,286046998.4,N
1638036095.0,286046999.2,N
1638036095.9,286046999.2,N
1638036115.8,286046999.1,N
1638036135.6,286046999.6,N
1638036155.4,286046999.3,N
1638036175.3,286046996.7,Y
1638036195.1,286046998.3,P
1638036215.9,286046999.5,N
1638036235.7,286046999.0,N
1638036255.5,286046999.6,N
1638036275.4,286047000.6,N
1638036295.2,286046998.5,N
1638036315.0,286046998.4,N
1638036316.0,286046998.4,N
1638036335.8,286046998.5,N
1638036355.6,286046996.6,Y
1638036375.5,286046998.9,P
1638036395.3,286046999.6,P
1638036415.1,286046999.1,N
1638036435.9,286046999.2,Y
1638036455.7,286046998.6,P
1638036475.6,286047001.1,P
1638036495.4,286047000.8,N
1638036515.2,286047002.0,N
1638036535.1,286047002.8,N
1638036536.0,286047002.8,N
1638036555.8,286047002.8,N
1638036575.6,286047001.8,N
1638036595.5,286047002.2,N
1638036615.3,286047002.5,N
1638036635.2,286046998.1,N
1638036655.9,286047000.6,N
1638036675.7,286046998.8,N
1638036695.6,286046999.6,N
1638036715.4,286046996.6,N
1638036735.2,286046998.1,N
1638036755.1,286047000.6,N
1638036756.0,286047000.6,N
1638036775.8,286046998.2,N
1638036795.7,286047001.0,N
1638036815.5,286047000.5,N
1638036835.3,286047001.1,N
1638036855.2,286046998.1,N
1638036875.9,286046998.6,N
1638036895.7,286046999.3,N
1638036915.6,286046999.5,N
1638036935.4,286046998.7,N
1638036955.3,286046998.5,N
1638036975.1,286046997.0,N
1638036976.0,286046997.0,N
1638036995.8,286046999.6,N
1638037015.7,286046997.2,N
1638037035.5,286046996.9,N
1638037055.3,286046999.6,N
1638037075.2,286046995.0,N
1638037095.0,286046995.0,N
1638037095.9,286046995.0,N
1638037115.8,286046995.0,N
1638037135.6,286046997.5,N
1638037155.4,286046997.1,N
1638037175.3,286046996.9,N
1638037195.1,286046998.0,N
1638037215.9,286046998.0,N
1638037235.7,286046996.2,N
1638037255.5,286046993.5,Y
1638037275.4,286046997.8,P
1638037295.2,286046996.5,P
1638037315.1,286046997.8,P
1638037316.0,286046997.8,Y
1638037335.8,286047001.1,P
1638037355.6,286046998.5,N
1638037375.5,286046998.2,N
1638037395.3,286046998.6,N
1638037415.2,286047000.9,N
1638037435.9,286046998.6,N
1638037455.7,286046998.8,N
1638037475.6,286046996.6,N
1638037495.4,286046999.5,N
1638037515.2,286046997.4,N
1638037535.1,286046996.0,Y
1638037536.0,286046996.0,P
1638037555.8,286046995.2,P
1638037575.7,286046995.1,P
1638037595.5,286046995.7,N
1638037615.3,286046993.9,Y
1638037635.2,286046998.9,P
1638037655.0,286046998.9,N
1638037655.9,286046998.9,N
1638037675.8,286046997.0,N
1638037695.6,286046997.6,N
1638037715.4,286046997.6,N
1638037735.3,286046994.9,Y
1638037755.1,286046998.6,P
1638037775.8,286046999.1,N
1638037795.7,286046997.2,P
1638037815.5,286046997.4,Y
1638037835.4,286046998.6,P
1638037855.2,286046996.7,P
1638037875.0,286046996.6,P
1638037875.9,286046996.6,Y
1638037895.8,286046998.2,P
1638037915.6,286046998.5,P
1638037935.4,286046998.7,P
1638037955.3,286046996.6,Y
1638037975.1,286047000.3,P
1638037995.9,286046999.5,N
1638038015.7,286046997.6,N
1638038035.5,286046999.1,N
1638038055.4,286046997.8,N
1638038075.2,286046997.3,N
1638038095.1,286046994.9,Y
1638038096.0,286046994.9,P
1638038115.8,286046996.4,N
1638038135.6,286046997.8,N
1638038155.5,286046997.8,N
1638038175.3,286046997.8,N
1638038195.1,286046995.6,Y
1638038215.9,286046996.8,P
1638038235.7,286046998.7,P
1638038255.6,286046997.8,N
1638038275.4,286046997.1,Y
1638038295.2,286046997.1,P
1638038315.1,286046995.3,P
1638038316.0,286046995.3,P
1638038335.8,286046995.1,Y
1638038355.7,286046999.4,P
1638038375.5,286046999.2,N
1638038395.3,286046996.5,N
1638038415.2,286046996.6,N
1638038435.0,286046997.2,N
1638038435.9,286046997.2,N
1638038455.7,286046998.0,N
1638038475.6,286046995.6,Y
1638038495.4,286046997.2,P
1638038515.3,286046996.7,P
1638038535.1,286046996.9,P
1638038536.0,286046996.9,Y
1638038555.8,286047004.4,P
1638038575.7,286046999.9,N
1638038595.5,286046998.6,N
1638038615.4,286046998.9,N
1638038635.2,286046998.7,N
1638038655.0,286046998.7,N
1638038655.9,286046998.7,N
1638038675.8,286046998.6,N
1638038695.6,286046999.0,N
1638038715.4,286046997.4,N
1638038735.3,286046994.9,N
1638038755.1,286046995.8,N
1638038775.9,286046995.8,N
1638038795.7,286046995.1,N
1638038815.5,286046995.9,N
1638038835.4,286046993.9,N
1638038855.2,286046994.4,N
1638038875.0,286046990.6,Y
1638038875.9,286046990.6,P
1638038895.8,286046996.1,N
1638038915.6,286046996.1,N
1638038935.5,286046996.0,N
1638038955.3,286046994.0,N
1638038975.1,286046991.8,Y
1638038995.9,286046996.8,P
1638039015.7,286046997.9,N
1638039035.6,286046995.8,P
1638039055.4,286046996.1,Y
1638039075.2,286046998.5,P
1638039095.1,286046998.4,N
1638039096.0,286046998.4,N
1638039115.8,286046998.2,N
1638039135.6,286046999.5,N
1638039155.5,286046998.8,N
1638039175.3,286046998.8,N
1638039195.2,286046999.0,N
1638039215.9,286046998.6,N
1638039235.7,286047000.9,N
1638039255.6,286046999.3,N
1638039275.4,286046997.1,N
1638039295.2,286046997.0,N
1638039315.1,286046996.8,N
1638039316.0,286046996.8,N
1638039335.8,286046997.9,N
1638039355.7,286046995.7,Y
1638039375.5,286046997.8,P
1638039395.3,286046997.4,P
1638039415.2,286046998.9,P
1638039435.0,286046996.5,Y
1638039435.9,286046996.5,P
1638039455.8,286046999.3,N
1638039475.6,286046999.1,N
1638039495.4,286046999.4,N
1638039515.3,286046999.6,N
1638039535.1,286046996.9,N
1638039555.8,286046999.6,N
1638039575.7,286046996.6,N
1638039595.5,286046997.6,N
